Location: East Guldeford
(50.9500°N, 0.7500°E)
Time: 08:29:27
(UTC+00:00)

COBE Rocket - Pass Details

Date: 12 May 2021
Orbit: 679 x 782 km, 97.1° (Epoch: 16 June)

Event Time Altitude Azimuth Distance (km) Brightness Sun altitude
Exits shadow 23:16:38 40° 150° (SSE) 1,113 4.4 -20.2°
Maximum altitude 23:18:27 75° 74° (ENE) 802 4.0 -20.2°
Drops below altitude 10° 23:23:38 10° 350° (N) 2,343 7.7 -20.4°
Sets 23:25:59 0° 349° (N) 3,281 8.9 -20.4°
